This demonstration page uses our WeatherBlox Daily Observations layout. Learn more.

Left ArrowRight Arrow

Hourly Observations for February 19, 2019

Temp ( °F °C ) Dew Point ( °F °C ) Humidity (%) Winds ( mph kmh ) Pressure ( in mb ) Visibility ( mi km ) Precip ( " mm )
12:53 am 00:53 Cloudy 44 6.7 32 0 63 63 N 6 9 30.35 1028 10 16 0.00 0.00
1:53 am 01:53 Cloudy 44 6.7 33 0.6 65 65 NNW 3 6 30.35 1028 10 16 0.00 0.00
2:53 am 02:53 Cloudy 43 6.1 33 0.6 68 68 NNW 8 13 30.35 1028 10 16 0.00 0.00
3:53 am 03:53 Cloudy 42 5.6 33 0.6 71 71 N 6 9 30.33 1027 10 16 0.00 0.00
4:53 am 04:53 Cloudy 42 5.6 34 1.1 73 73 NNW 9 15 30.38 1029 10 16 0.00 0.03
5:53 am 05:53 Cloudy 40 4.4 35 1.7 83 83 NNE 6 9 30.38 1029 10 16 0.00 0.03
6:53 am 06:53 Cloudy 41 5 36 2.2 82 82 N 5 7 30.40 1030 10 16 0.00 0.03
7:53 am 07:53 Cloudy 42 5.6 38 3.3 85 85 N 5 7 30.44 1031 10 16 0.00 0.00
8:53 am 08:53 Cloudy 44 6.7 40 4.4 85 85 N 8 13 30.46 1031 10 16 0.00 0.00
9:53 am 09:53 Cloudy 46 7.8 41 5 83 83 N 7 11 30.45 1031 10 16 0.01 0.25
10:53 am 10:53 Cloudy 48 8.9 38 3.3 68 68 E 12 19 30.42 1030 10 16 0.00 0.00
11:53 am 11:53 Cloudy 48 8.9 37 2.8 66 66 E 13 20 30.38 1029 10 16 0.00 0.00
12:04 pm 12:04 Cloudy with Nearby Thunderstorms 47 8.3 37 2.8 69 69 ENE 9 15 30.43 1030 9 14 0.00 0.03
12:11 pm 12:11 Cloudy with Thunderstorms 46 7.8 39 3.9 77 77 ENE 12 19 30.43 1030 6 10 0.02 0.51
12:33 pm 12:33 Cloudy with Rain 44 6.7 41 5 89 89 E 6 9 30.43 1031 4 6 0.08 2.03
12:53 pm 12:53 Cloudy with Nearby Thunderstorms 43 6.1 42 5.6 97 97 ENE 13 20 30.39 1029 4 6 0.15 3.81
1:03 pm 13:03 Cloudy with Thunderstorms 43 6.1 42 5.6 97 97 ENE 6 9 30.43 1031 4 6 0.03 0.76
1:14 pm 13:14 Cloudy with Strong Thunderstorms 43 6.1 41 5 93 93 E 13 20 30.40 1030 2 3 0.15 3.81
1:40 pm 13:40 Cloudy with Strong Thunderstorms 42 5.6 41 5 96 96 ENE 13 20 30.41 1030 1 2 0.56 14.22
1:53 pm 13:53 Cloudy with Strong Thunderstorms 42 5.6 42 5.6 100 100 ENE 13 20 30.38 1029 1 2 0.83 21.08
2:00 pm 14:00 Cloudy with Strong Thunderstorms 42 5.6 42 5.6 100 100 ENE 10 17 30.39 1029 1 2 0.14 3.56
2:24 pm 14:24 Cloudy with Rain 41 5 41 5 100 100 ENE 14 22 30.38 1029 1 2 0.48 12.19
2:28 pm 14:28 Cloudy with Thunderstorms 41 5 41 5 100 100 ENE 8 13 30.39 1029 1 2 0.50 12.70
2:50 pm 14:50 Cloudy with Light Rain 41 5 39 4 93 93 ENE 17 28 30.36 1028 1 2 0.50 12.70
2:53 pm 14:53 Cloudy with Light Rain 41 5 40 4.4 96 96 ENE 13 20 30.34 1027 3 5 0.51 12.95
3:34 pm 15:34 Cloudy with Thunderstorms 40 4.4 39 3.9 97 97 ENE 18 30 30.32 1027 3 5 0.03 0.76
3:48 pm 15:48 Cloudy with Thunderstorms 39 4 39 4 100 100 ENE 14 22 30.34 1027 3 4 0.04 1.02
3:49 pm 15:49 Cloudy with Thunderstorms 40 4.4 40 4.4 100 100 ENE 16 26 30.32 1027 3 4 0.04 1.02
3:59 pm 15:59 Cloudy with Thunderstorms 40 4.4 39 3.9 97 97 NE 14 22 30.34 1027 3 4 0.01 0.25
4:05 pm 16:05 Cloudy with Light Rain 40 4.4 39 3.9 97 97 ENE 12 19 30.35 1028 3 4 0.01 0.25
4:53 pm 16:53 Cloudy with Rain 40 4.4 39 3.9 97 97 ENE 12 19 30.35 1028 2 3 0.06 1.52
5:53 pm 17:53 Cloudy with Rain 38 3.3 38 3.3 100 100 ENE 15 24 30.36 1028 2 3 0.13 3.30
6:53 pm 18:53 Cloudy with Light Rain 38 3.3 37 2.8 97 97 E 15 24 30.34 1027 3 5 0.04 1.02
7:35 pm 19:35 Cloudy with Light Rain 38 3.3 37 2.8 97 97 E 15 24 30.35 1028 7 11 0.00 0.03
7:53 pm 19:53 Cloudy 39 3.9 38 3.3 96 96 E 14 22 30.32 1027 10 16 0.00 0.03
8:53 pm 20:53 Cloudy with Rain 39 3.9 38 3.3 96 96 E 12 19 30.32 1027 6 10 0.01 0.25
9:53 pm 21:53 Cloudy with Light Rain 40 4.4 39 3.9 97 97 undefined N/A 30.32 1027 8 13 0.01 0.25
10:05 pm 22:05 Cloudy with Light Rain 40 4.4 39 3.9 97 97 E 14 22 30.34 1027 10 16 0.01 0.25
10:53 pm 22:53 Cloudy with Light Rain 41 5 39 3.9 93 93 E 10 17 30.29 1026 10 16 0.01 0.25
11:53 pm 23:53 Cloudy 41 5 40 4.4 96 96 E 9 15 30.30 1026 10 16 0.00 0.03

Powered by AerisWeather